Vertical_Velocity
-0 2 2 -2 -1 -2 -3 -2 1 -1 -1 -1 1 -1 2 -0 -1 -3 -1 -1 -0 -0 -1 -2 -2 -1 -0 7 -3 9 -17 4 -2 6 -1 7 -1 4 4 -9 7 2 4 2 -2 -4 -5
-2 1 2 -0 -1 0 -3 -3 -1 -1 -2 -0 1 -0 1 2 1 -1 -2 0 -1 -1 -1 -2 -1 -1 -2 4 -2 6 -3 -3 -1 4 -2 6 6 2 6 -7 5 -3 2 5 -2 -1 -2
-2 -0 1 -1 -0 2 -1 -3 -1 -0 -2 -1 -1 -1 -0 2 1 -0 -2 0 -1 0 -0 0 -0 -0 -2 -2 -2 -2 -3 8 5 2 1 -7 -4 -3 1 3 6 1 3 5 5 3 5
2 1 -1 1 1 0 1 -2 -1 0 -2 -2 -1 0 -1 3 1 1 -2 1 -0 -1 -1 -2 -0 -0 1 -1 -3 7 4 2 -2 6 -4 10 2 4 4 -2 7 -1 7 -1 -5 0 -5
-0 0 0 -0 0 -0 1 -0 -1 -1 -0 -2 -0 -0 -1 1 2 2 -2 0 -2 -2 -0 -3 -0 -5 0 2 -2 -2 -18 -4 -0 9 -9 23 -1 0 7 -4 5 6 -2 -1 1 -1 -4
-1 4 -1 -1 1 0 0 0 -1 1 -0 -1 -1 -0 -2 1 1 1 -0 -0 -2 -2 -1 -3 -3 -3 0 3 4 -4 4 -5 -0 0 5 -12 10 2 4 -0 -10 -6 0 1 -0 -7 -4
1 -1 1 -0 2 -1 1 -1 -1 0 1 -0 -2 -1 -1 1 1 2 -1 -2 -2 -2 1 -5 -1 -4 1 -2 -1 -3 1 -3 6 3 0 10 0 -5 -7 4 6 -1 1 -1 0 1 -1
-1 -1 2 0 -1 1 2 -0 -0 0 0 -1 -1 -1 -1 2 1 1 1 -3 -2 -0 -4 -2 -2 -1 -1 -2 2 -4 -5 -3 -4 -1 -8 8 -3 4 -5 2 -4 -0 -1 1 3 -2 -5
-1 0 -0 1 -2 0 2 -0 -1 1 -0 -1 -1 -0 -2 0 1 1 2 -2 -0 -2 -2 -2 -1 -2 -0 0 -1 0 -2 -13 -1 0 -8 6 -6 1 5 0 -6 -1 -3 3 5 -5 -2
-0 0 -3 2 -1 -1 0 1 -2 1 -1 -0 -1 -1 -1 -0 0 1 2 -2 -2 -2 -2 0 -2 0 -1 -3 -1 4 2 -4 -0 -3 1 1 -0 1 2 2 -4 -1 -3 1 -3 -0 1
0 -1 -2 0 1 -1 -0 2 -3 -0 -0 -1 -1 1 -3 0 1 2 0 -0 -4 -1 -1 1 -5 2 -3 -2 -3 2 2 2 3 -7 -6 -0 -2 -4 -2 -3 -1 4 -1 1 0 5 -2
-0 -1 0 -3 2 -1 1 1 -2 -1 0 -1 -0 1 -3 -1 1 1 0 -0 -3 -1 1 -3 -1 -2 -0 -2 -3 -2 1 4 5 7 -0 -7 -2 0 2 -1 -0 2 -1 0 -0 1 8
-1 -1 1 -4 0 2 -1 1 -1 -1 0 -2 -1 -1 -3 -4 -1 -0 -1 -1 -2 -3 -0 -1 -2 -3 -1 1 -1 -5 -0 -0 4 1 -1 5 1 -0 1 1 2 0 4 4 8 8 -4
-2 -1 2 -3 -1 2 -1 0 -0 -1 1 -1 -1 -3 -1 -3 -0 -2 -2 -1 -3 -1 -1 -1 -2 -2 2 -3 -3 -7 6 -0 0 -0 -6 2 9 -1 -3 5 -4 -3 1 -0 -3 -1 -0
-3 1 1 -1 -2 0 1 -2 0 -2 1 -1 0 -2 -3 -1 -2 -3 0 -4 0 0 -1 0 -1 0 1 0 1 2 -0 3 -1 0 6 1 -1 4 1 1 5 -3 1 -0 -2 -4 2
-1 0 0 1 -0 0 1 -4 -0 -3 1 -3 2 -3 -2 -1 -2 -3 0 -4 -1 -1 -2 1 0 -3 -2 -2 2 -4 1 -1 -6 -1 -3 0 -2 -2 0 2 1 0 2 0 -2 2 0
0 1 1 -0 1 0 1 -1 -3 -4 -0 -4 2 0 -3 -1 -2 -3 -1 -3 -1 -2 -2 -2 -1 1 -0 -1 -1 -0 -4 -0 4 1 -2 -2 3 1 11 -5 -2 -2 -1 1 1 2 1
0 1 0 0 0 1 2 0 -5 -4 -1 -5 -3 3 -2 -1 -1 -4 -2 -2 -0 -1 -1 -3 -3 1 -2 3 1 0 -3 1 -2 3 -7 1 5 -1 -7 -4 1 9 -1 -2 5 1 -2
2 -1 -1 -0 1 2 1 1 -4 -3 -4 -3 -4 2 -3 -2 0 -1 -1 0 0 -2 1 -1 -3 -1 1 -1 -1 6 -0 1 3 -2 -2 -8 4 1 6 3 0 -4 -3 -1 2 5 -5
18 -4 -1 -2 0 0 1 1 -4 -3 -6 -0 -3 0 -3 -3 -0 -1 1 2 -0 -0 -2 -3 2 0 1 -0 4 1 1 4 7 1 4 6 1 -5 -5 -2 -4 -9 -4 1 4 3 -11
-4 14 4 -1 2 -0 -1 2 -2 -1 -6 -0 -2 -2 -4 -3 0 -2 -3 2 1 1 -1 1 -3 4 4 -7 3 -2 1 -1 -3 7 6 1 -1 0 4 0 0 -2 -2 -2 -2 -3 3
10 2 0 -4 0 -1 0 1 1 -2 -3 -1 -0 -3 1 -3 -2 -3 -2 -0 -0 -3 4 2 -0 3 3 -3 9 0 10 9 7 1 14 2 12 -3 -0 1 -2 -3 1 2 -1 -4 2
23 -2 -11 -2 1 2 0 -0 -0 1 -0 -1 -2 -1 -2 -1 -1 -3 -3 0 -3 -1 1 4 4 -0 -8 3 3 1 -4 8 10 5 11 6 3 -1 1 -4 6 0 -14 -5 -0 -0 7
4 -7 -9 1 -0 1 1 -1 -0 -0 -1 0 -2 -3 -1 -0 -1 -3 -4 1 0 -1 2 8 3 4 -4 1 -3 -3 -7 1 -10 5 10 7 0 2 2 2 3 -9 -2 2 -1 -2 4
5 -0 -0 -7 -3 1 -0 -2 -1 -0 -1 -2 -2 -3 -1 -3 -1 -0 -5 -2 -3 1 3 3 -0 -3 -3 -2 -6 -4 1 1 -15 -5 6 -0 7 4 -3 -3 -4 -8 -5 -4 -5 -8 -1
11 3 -0 -5 0 1 0 0 0 -0 -1 -1 -1 -2 -0 -1 -4 -2 -5 -3 -1 -2 -1 -0 -2 -4 -2 -1 -1 1 1 3 3 6 2 0 5 4 4 1 -2 -4 -1 -3 1 -4 -3
8 2 -2 -10 -1 -3 -2 1 1 -1 -2 -0 -2 -1 -1 -2 -1 -3 -4 -2 -1 0 0 -1 1 -3 -0 1 1 2 2 -2 1 5 0 8 10 -5 -0 -0 -5 -8 -1 4 3 2 -1
3 0 -3 1 -2 -3 1 0 -0 0 -2 -1 -0 0 -2 -1 1 -2 -3 -3 -2 -3 -0 -1 -2 -4 -3 -0 -1 -2 0 3 1 0 -2 0 2 -2 6 2 -9 1 5 -3 3 0 0
-3 17 7 -1 -7 3 3 1 3 0 0 1 -1 -0 0 -0 -0 1 -4 -2 -2 -1 -2 0 -1 -3 -2 -2 -2 -3 -1 -2 -1 1 -2 2 -5 3 -4 -3 2 2 -0 0 -1 0 -1
Height
3148 3145 3143 3139 3134 3129 3126 3121 3118 3114 3110 3106 3100 3095 3089 3084 3080 3075 3069 3064 3060 3056 3054 3051 3048 3045 3044 3044 3043 3041 3042 3046 3052 3060 3067 3074 3079 3084 3089 3094 3100 3106 3111 3117 3122 3127 3132
3146 3143 3140 3137 3132 3129 3124 3120 3115 3112 3109 3104 3099 3093 3087 3083 3078 3074 3069 3065 3060 3056 3054 3052 3049 3046 3045 3045 3043 3042 3043 3047 3053 3060 3065 3071 3078 3082 3089 3094 3101 3103 3110 3114 3120 3125 3129
3145 3141 3138 3135 3132 3127 3123 3119 3114 3111 3107 3103 3098 3092 3086 3081 3077 3074 3069 3065 3060 3056 3053 3051 3049 3047 3046 3046 3043 3042 3046 3047 3055 3060 3068 3072 3078 3084 3089 3094 3098 3103 3110 3112 3117 3122 3125
3143 3139 3136 3133 3130 3125 3121 3117 3113 3110 3105 3101 3097 3091 3086 3080 3077 3073 3069 3065 3061 3056 3052 3051 3049 3047 3047 3045 3044 3045 3047 3050 3057 3061 3066 3070 3077 3083 3087 3092 3098 3103 3110 3112 3114 3117 3121
3142 3137 3134 3131 3128 3124 3119 3116 3112 3108 3104 3099 3096 3090 3085 3080 3076 3072 3069 3066 3062 3057 3053 3052 3050 3048 3048 3047 3047 3047 3049 3053 3059 3064 3068 3072 3078 3082 3088 3092 3098 3101 3104 3110 3113 3114 3117
3139 3137 3132 3128 3126 3121 3118 3114 3110 3106 3102 3098 3094 3089 3085 3079 3074 3072 3069 3066 3064 3060 3056 3054 3051 3052 3050 3049 3049 3050 3052 3057 3061 3067 3072 3074 3078 3082 3087 3092 3095 3098 3104 3110 3112 3111 3114
3135 3134 3130 3127 3123 3119 3116 3112 3108 3104 3100 3096 3092 3088 3084 3079 3074 3071 3068 3066 3067 3064 3059 3056 3055 3052 3051 3052 3052 3053 3056 3060 3065 3070 3071 3073 3079 3083 3088 3094 3095 3100 3104 3107 3109 3109 3112
3131 3130 3128 3125 3121 3117 3114 3110 3106 3102 3099 3095 3091 3087 3083 3078 3074 3070 3068 3065 3064 3066 3062 3059 3057 3056 3055 3054 3055 3056 3060 3065 3068 3071 3074 3077 3080 3086 3089 3093 3095 3100 3104 3106 3105 3107 3110
3127 3126 3125 3123 3119 3115 3112 3108 3104 3101 3097 3093 3090 3086 3083 3078 3074 3070 3067 3065 3064 3065 3065 3064 3061 3060 3060 3059 3058 3059 3063 3067 3071 3074 3078 3079 3083 3086 3089 3092 3096 3099 3102 3103 3103 3105 3108
3123 3121 3121 3120 3118 3114 3110 3107 3103 3099 3096 3092 3089 3086 3083 3079 3075 3070 3067 3065 3064 3064 3066 3069 3066 3066 3065 3063 3064 3063 3065 3070 3071 3074 3079 3080 3081 3084 3089 3091 3095 3098 3099 3102 3104 3107 3107
3118 3117 3116 3116 3115 3113 3109 3105 3102 3098 3095 3091 3088 3086 3083 3077 3074 3070 3069 3065 3064 3065 3068 3072 3070 3068 3066 3067 3067 3067 3068 3070 3072 3074 3079 3080 3080 3083 3088 3092 3095 3097 3098 3101 3103 3105 3105
3113 3112 3112 3112 3111 3111 3107 3104 3101 3097 3093 3092 3088 3086 3082 3078 3074 3072 3068 3066 3065 3069 3072 3073 3072 3071 3069 3067 3068 3068 3070 3072 3073 3076 3076 3078 3080 3084 3089 3090 3094 3096 3098 3101 3102 3104 3101
3106 3106 3107 3107 3107 3107 3105 3102 3100 3097 3093 3091 3088 3086 3082 3079 3075 3072 3069 3067 3068 3068 3074 3075 3072 3071 3071 3071 3071 3070 3071 3072 3074 3076 3076 3078 3079 3081 3085 3090 3093 3096 3098 3100 3101 3099 3093
3100 3100 3102 3102 3103 3103 3103 3100 3099 3096 3093 3091 3089 3086 3083 3080 3076 3073 3070 3070 3068 3072 3071 3072 3073 3072 3073 3073 3073 3073 3072 3072 3074 3075 3075 3076 3080 3080 3082 3085 3087 3091 3095 3093 3093 3090 3088
3093 3093 3096 3096 3097 3099 3101 3099 3097 3096 3093 3091 3089 3086 3083 3081 3077 3074 3073 3070 3072 3072 3072 3072 3072 3072 3073 3072 3073 3070 3070 3070 3070 3073 3076 3075 3075 3076 3078 3081 3086 3087 3089 3091 3091 3091 3090
3085 3087 3089 3091 3092 3095 3097 3097 3096 3095 3093 3090 3088 3087 3084 3082 3078 3076 3074 3072 3072 3072 3072 3071 3071 3071 3071 3070 3070 3068 3069 3068 3068 3069 3071 3073 3074 3075 3077 3079 3082 3083 3086 3089 3090 3088 3083
3078 3080 3083 3085 3087 3090 3092 3094 3094 3094 3092 3089 3087 3086 3085 3082 3080 3078 3075 3073 3072 3071 3070 3071 3069 3068 3067 3067 3066 3066 3065 3064 3063 3066 3068 3070 3071 3074 3075 3074 3075 3079 3080 3082 3084 3084 3079
3069 3073 3076 3079 3082 3085 3087 3090 3091 3092 3091 3089 3086 3086 3084 3083 3082 3078 3076 3074 3071 3070 3068 3067 3066 3065 3064 3063 3064 3062 3060 3061 3060 3062 3063 3067 3068 3069 3070 3070 3072 3074 3076 3078 3078 3079 3079
3060 3066 3069 3072 3076 3079 3082 3085 3088 3089 3088 3087 3085 3084 3084 3083 3081 3078 3076 3073 3071 3069 3067 3064 3064 3062 3061 3061 3060 3057 3057 3057 3057 3058 3058 3059 3061 3064 3067 3069 3067 3067 3069 3071 3074 3073 3072
3050 3057 3062 3065 3070 3074 3077 3080 3083 3085 3086 3086 3084 3083 3082 3081 3080 3077 3074 3072 3069 3067 3065 3063 3060 3057 3056 3054 3054 3051 3051 3051 3052 3050 3052 3053 3054 3055 3055 3056 3058 3059 3061 3065 3068 3065 3068
3041 3047 3052 3058 3063 3068 3072 3076 3079 3080 3082 3083 3082 3081 3080 3079 3078 3076 3073 3070 3066 3064 3061 3058 3055 3053 3052 3050 3048 3046 3045 3046 3046 3046 3047 3049 3048 3050 3052 3053 3054 3055 3056 3058 3058 3059 3060
3031 3038 3043 3051 3056 3062 3066 3069 3073 3076 3078 3079 3079 3078 3077 3076 3075 3073 3070 3066 3063 3059 3057 3052 3050 3048 3046 3043 3043 3041 3039 3040 3040 3041 3042 3043 3041 3045 3047 3049 3050 3051 3053 3054 3054 3054 3052
3023 3029 3036 3043 3049 3055 3060 3064 3068 3071 3073 3074 3075 3075 3074 3073 3071 3069 3066 3063 3059 3055 3051 3046 3042 3038 3038 3036 3033 3033 3033 3033 3032 3035 3036 3038 3039 3042 3044 3045 3046 3046 3044 3046 3046 3046 3047
3013 3021 3027 3035 3042 3049 3054 3058 3062 3066 3069 3070 3071 3071 3070 3069 3067 3065 3061 3058 3054 3050 3045 3044 3037 3033 3030 3027 3025 3024 3023 3024 3028 3027 3029 3032 3035 3039 3041 3043 3043 3038 3037 3039 3038 3038 3039
3006 3013 3021 3028 3035 3042 3048 3053 3056 3061 3064 3065 3066 3067 3065 3064 3062 3060 3057 3054 3051 3046 3040 3034 3031 3028 3026 3023 3021 3020 3018 3017 3019 3022 3025 3029 3032 3034 3037 3039 3037 3034 3033 3034 3034 3033 3034
2998 3006 3014 3022 3029 3035 3041 3046 3051 3055 3059 3061 3061 3061 3060 3059 3057 3055 3052 3049 3045 3041 3037 3030 3026 3024 3023 3021 3021 3022 3020 3018 3019 3016 3020 3025 3030 3033 3033 3034 3032 3030 3029 3031 3031 3029 3027
2992 2999 3007 3014 3021 3028 3035 3040 3046 3050 3054 3056 3056 3056 3055 3054 3052 3050 3048 3044 3040 3034 3031 3026 3023 3022 3021 3021 3021 3022 3019 3017 3017 3017 3019 3020 3024 3026 3029 3029 3027 3027 3027 3027 3030 3030 3024
2985 2993 3000 3008 3015 3022 3028 3035 3041 3045 3048 3051 3052 3052 3051 3048 3046 3044 3042 3040 3034 3030 3026 3024 3023 3020 3020 3020 3020 3020 3019 3018 3017 3016 3018 3020 3021 3023 3027 3026 3025 3021 3022 3024 3024 3022 3022
2980 2987 2995 3001 3008 3015 3022 3029 3034 3039 3043 3046 3046 3047 3045 3043 3042 3039 3038 3033 3029 3025 3023 3021 3022 3020 3019 3019 3020 3019 3020 3018 3018 3017 3016 3019 3019 3019 3021 3019 3017 3018 3018 3019 3019 3019 3019